Location: Piotrkow Trybunalski
(51.4000°N, 19.6830°E)
Time: 17:39:53
(UTC+01:00)

Explorer 7 - Pass Details

Date: 24 December 2025
Orbit: 433 x 550 km, 50.2° (Epoch: 17 January)

Event Time Altitude Azimuth Distance (km) Brightness Sun altitude
Rises 16:57:36 0° 279° (W) 2,492 11.2 -11.7°
Reaches altitude 10° 16:59:50 10° 274° (W) 1,596 10.3 -12.0°
Maximum altitude 17:03:18 48° 199° (SSW) 589 7.3 -12.5°
Drops below altitude 10° 17:06:40 10° 124° (SE) 1,548 8.8 -13.0°
Enters shadow 17:06:50 - 123° (ESE) 1,616 8.9 -13.0°
